Wind_Speed
24 25 27 29 31 33 35 38 42 46 49 50 51 52 53 53 52 52 52 51 49 49 48 49 48 48 48 46 45 44 43 42 42 42 41 40 40 39 38 37 36 36 36
21 22 24 26 28 30 31 34 39 42 44 47 48 50 52 53 53 52 53 52 51 51 49 48 48 48 48 48 47 47 46 46 44 43 44 44 43 42 41 40 40 39 39
20 21 22 23 25 28 30 32 36 39 41 44 45 47 51 53 53 52 51 52 51 50 49 49 50 49 50 50 50 50 48 48 47 47 46 46 45 44 44 43 43 42 41
17 18 21 23 24 25 28 31 33 37 40 43 45 46 48 51 52 51 51 52 51 50 51 51 52 51 52 52 52 52 50 49 49 49 48 47 47 47 46 45 44 44 43
15 15 18 20 23 24 26 28 30 34 38 41 42 44 45 47 49 50 51 51 51 51 52 52 52 53 54 54 53 53 53 51 50 50 50 49 48 48 48 46 46 46 46
13 13 14 15 18 20 23 25 27 30 34 36 39 40 42 44 46 47 49 50 50 50 51 53 53 52 53 54 54 54 54 53 52 52 52 51 50 49 49 48 48 48 48
11 11 11 13 14 16 18 21 23 26 30 32 35 37 39 42 43 44 46 48 49 49 50 51 52 53 54 55 56 57 56 54 54 53 53 53 53 51 50 51 51 51 50
8 10 10 10 10 12 13 16 19 21 24 28 31 34 35 38 41 42 43 45 47 47 48 49 50 50 51 53 55 55 55 54 54 53 53 53 54 54 53 52 52 53 52
7 7 7 7 8 10 11 13 16 18 19 23 28 30 32 34 37 39 41 43 45 46 46 47 47 49 50 52 54 55 55 56 55 55 54 54 55 56 56 55 54 54 54
4 5 5 6 7 8 9 11 13 15 17 20 24 27 30 32 33 34 36 39 40 43 45 47 48 49 51 52 53 55 56 57 57 56 56 57 56 56 57 58 57 56 55
4 4 4 5 5 5 6 8 9 11 13 15 19 23 26 30 32 32 34 35 37 38 41 44 47 48 49 51 53 54 55 57 57 57 57 57 57 56 57 58 58 58 57
4 3 3 2 3 5 6 6 7 9 11 13 16 18 21 25 27 29 29 32 34 36 39 41 43 45 48 50 51 53 55 57 58 57 57 57 57 57 58 58 59 59 59
3 3 4 4 4 4 5 6 6 7 9 10 12 15 17 20 23 25 26 28 29 32 36 39 41 44 46 48 50 52 53 55 56 57 57 57 57 57 57 58 58 58 58
4 5 5 5 5 5 5 6 7 7 7 8 9 12 14 16 18 20 24 26 28 29 32 36 39 41 43 45 47 49 51 54 54 55 56 56 57 58 57 56 57 57 57
5 6 6 6 7 7 7 7 7 7 7 8 10 11 13 15 17 20 22 25 27 30 31 34 37 40 42 43 45 47 50 52 53 54 54 55 56 55 56 56 55 56 57
6 7 7 8 9 9 9 8 8 8 9 11 12 13 15 16 18 20 22 24 26 28 30 32 35 38 41 43 45 46 47 49 51 52 53 54 54 54 54 54 55 55 56
7 7 7 8 9 9 10 10 10 10 10 12 14 15 16 18 20 21 23 25 28 30 31 32 34 36 38 41 44 46 46 48 49 50 51 51 52 52 52 52 53 54 54
7 7 8 9 10 10 11 11 11 12 12 13 15 16 16 17 19 21 23 25 28 30 32 34 34 36 38 40 42 44 46 47 47 48 48 49 49 51 51 51 52 53 53
9 10 10 11 12 12 13 14 14 13 14 15 16 17 18 18 20 21 22 24 26 28 30 32 33 35 36 37 39 41 43 44 44 45 46 47 48 50 50 50 49 50 51
12 13 13 13 14 14 15 16 16 15 16 16 17 18 20 21 22 23 25 26 27 28 29 31 32 32 33 34 36 38 40 42 43 44 45 46 47 47 48 49 49 49 49
15 16 16 16 16 17 18 18 18 18 19 20 20 21 22 23 24 25 26 28 29 30 30 31 31 31 32 32 34 37 38 39 41 42 43 44 45 46 47 48 48 47 47
18 18 19 19 19 19 19 19 20 21 22 23 24 25 26 27 28 29 29 30 30 31 31 31 32 33 33 33 33 35 36 37 39 40 42 42 43 45 46 47 48 48 47
21 21 21 21 21 21 22 22 23 24 25 25 26 27 29 30 31 32 31 31 31 31 31 31 32 33 33 33 35 35 36 37 38 39 41 41 43 45 46 46 47 47 46
23 24 24 24 24 24 24 24 25 26 27 28 28 30 31 33 34 33 33 33 33 33 33 34 34 34 34 34 35 36 37 38 39 40 41 42 42 43 44 44 44 44 43
26 26 26 26 27 27 26 27 27 28 28 30 31 32 33 34 34 34 34 35 35 36 36 36 37 36 36 36 36 37 37 37 38 39 40 41 40 39 40 41 42 43 43
29 29 29 29 29 29 30 30 30 30 31 32 33 34 34 35 36 37 37 37 37 37 37 37 37 37 36 36 36 37 37 38 38 39 38 38 38 39 40 40 40 42 42
Wind_Direction
252 248 244 242 242 239 237 236 233 233 233 233 234 234 236 235 236 236 235 237 238 239 241 242 241 240 241 241 242 242 244 247 249 250 251 251 253 254 256 258 261 263 265
254 251 246 244 242 240 239 238 236 236 235 233 234 235 234 234 236 236 235 236 239 240 240 241 241 242 241 241 242 243 244 247 249 250 251 252 253 255 256 258 260 262 264
255 253 251 247 246 243 242 241 238 237 236 235 235 235 236 236 235 235 237 237 239 240 240 242 242 242 242 243 244 244 243 245 248 249 251 252 253 255 255 257 259 261 263
259 254 250 248 249 245 246 243 240 238 237 236 236 237 236 234 234 235 237 238 239 240 242 243 243 243 243 244 246 245 245 246 247 249 252 254 254 255 255 256 258 259 261
262 261 257 254 251 248 245 245 242 240 237 237 236 236 235 234 234 236 237 240 241 242 243 244 245 243 243 243 245 245 246 246 247 248 251 253 254 256 256 256 257 258 260
264 269 267 260 255 252 248 247 244 242 239 240 239 236 234 235 236 237 239 240 242 243 244 245 245 244 243 244 245 245 246 247 247 249 251 253 255 257 256 256 257 258 260
265 267 265 262 259 254 251 251 247 245 242 240 237 234 237 238 239 240 240 241 243 244 245 245 246 246 245 245 245 245 246 246 247 250 252 253 255 255 256 257 258 259 260
262 266 268 266 262 257 252 249 245 243 242 239 237 238 240 239 239 242 243 243 244 245 246 245 247 248 246 245 245 246 246 247 248 250 251 253 254 255 256 257 258 260 260
267 269 273 270 264 264 257 250 244 242 242 240 239 240 240 240 243 244 245 245 245 244 246 246 247 248 248 247 247 246 246 247 249 250 252 254 255 255 255 256 257 259 260
280 278 284 279 275 277 270 261 243 244 246 244 240 240 242 241 243 244 244 246 246 245 246 247 248 248 248 248 248 248 248 249 250 251 253 254 255 255 256 257 257 259 261
314 310 288 270 286 290 280 263 249 247 253 253 246 242 242 243 245 246 248 248 247 247 247 248 248 249 249 249 250 250 249 250 251 252 255 256 256 255 255 256 257 258 260
317 314 325 321 301 287 286 280 270 267 262 263 259 254 248 245 245 248 251 250 249 249 250 250 250 250 250 251 252 252 252 252 252 254 255 254 255 255 255 256 257 258 259
315 311 311 307 312 305 290 289 295 290 276 272 268 263 259 255 253 254 254 253 255 255 254 254 254 254 253 253 254 254 253 253 254 255 255 255 255 256 256 256 256 258 260
313 317 324 321 319 324 320 317 311 304 293 284 278 270 265 262 260 259 260 260 262 264 264 262 260 259 257 257 256 256 255 255 255 256 256 256 256 256 256 257 258 259 259
316 316 320 324 326 326 327 319 313 311 308 302 293 285 278 275 270 266 264 265 267 269 270 269 267 263 260 258 259 258 256 256 256 256 256 257 256 255 257 258 258 259 260
309 314 321 321 325 330 332 330 321 311 306 307 306 297 285 282 279 275 273 272 273 274 274 273 270 266 262 261 260 259 258 257 256 256 255 256 256 257 257 257 258 259 260
308 314 318 317 322 328 330 329 328 323 314 308 306 302 295 289 285 282 281 280 278 278 278 278 275 270 267 265 263 261 259 257 256 255 255 255 256 256 256 257 258 258 258
315 314 316 316 320 325 329 328 323 319 319 317 316 313 306 302 296 290 287 285 283 281 279 279 275 271 268 266 265 264 262 260 257 256 255 255 255 256 257 258 258 258 257
314 313 313 313 315 318 321 323 321 318 319 322 321 319 316 310 304 299 297 295 293 291 286 284 280 275 272 270 269 268 265 261 257 256 255 255 255 256 257 257 257 258 258
315 315 313 312 313 314 316 318 319 317 316 316 318 317 317 315 312 307 305 303 302 300 297 295 291 286 280 276 273 271 267 261 257 256 256 256 257 256 255 257 258 258 259
313 314 313 311 310 311 312 312 312 311 311 311 312 314 315 314 313 312 309 306 305 303 302 300 297 294 289 284 278 274 269 264 260 259 259 259 258 258 257 259 260 260 260
305 307 308 308 306 307 308 309 309 308 308 308 309 311 312 312 312 313 311 309 308 306 304 302 300 299 294 289 285 280 274 270 267 263 262 263 263 262 261 260 261 261 261
298 301 303 304 304 303 303 304 306 306 307 307 308 308 310 311 311 311 310 309 307 306 305 304 304 302 298 292 288 285 280 276 272 267 266 266 266 265 263 261 261 262 263
295 297 299 300 301 301 301 302 303 305 305 305 306 308 309 310 310 309 309 308 306 305 304 303 303 302 299 295 291 288 283 280 275 271 268 268 268 267 265 263 262 262 262
291 293 295 296 298 300 300 301 301 303 303 304 305 305 306 307 307 307 307 307 305 304 302 302 302 301 299 296 293 290 285 281 278 274 271 268 266 266 264 263 263 262 262
288 289 291 292 294 295 297 298 299 300 301 302 304 305 306 306 306 307 306 305 304 304 303 301 300 300 300 299 295 291 287 283 281 276 271 268 266 266 265 263 262 262 261
Height
5675 5675 5677 5679 5681 5684 5687 5692 5696 5701 5706 5712 5718 5724 5729 5735 5740 5746 5751 5755 5759 5764 5768 5771 5775 5779 5783 5786 5790 5793 5795 5797 5799 5802 5804 5805 5807 5808 5809 5810 5811 5811 5811
5671 5671 5672 5673 5675 5677 5680 5683 5687 5692 5696 5702 5707 5712 5718 5723 5729 5735 5740 5745 5749 5753 5757 5761 5765 5769 5773 5776 5780 5783 5785 5788 5790 5792 5794 5796 5798 5800 5801 5801 5802 5803 5803
5666 5666 5667 5668 5669 5671 5673 5676 5679 5683 5687 5692 5697 5701 5706 5711 5718 5723 5728 5734 5738 5742 5747 5751 5755 5758 5762 5766 5769 5773 5775 5778 5780 5782 5784 5786 5788 5790 5792 5792 5793 5793 5794
5661 5661 5661 5661 5662 5664 5666 5669 5671 5674 5678 5682 5687 5692 5696 5702 5708 5713 5718 5724 5727 5732 5736 5740 5743 5747 5751 5755 5758 5762 5765 5767 5769 5772 5774 5776 5778 5779 5781 5783 5783 5783 5784
5657 5656 5656 5656 5657 5658 5659 5661 5663 5666 5669 5673 5677 5682 5686 5692 5697 5702 5708 5712 5716 5720 5724 5728 5732 5736 5740 5744 5747 5750 5753 5756 5758 5761 5763 5765 5766 5767 5769 5771 5773 5773 5773
5653 5653 5652 5651 5651 5651 5652 5654 5655 5658 5660 5663 5667 5672 5677 5682 5687 5692 5696 5701 5705 5709 5713 5717 5720 5724 5728 5732 5735 5737 5741 5744 5746 5749 5751 5753 5755 5757 5758 5759 5760 5761 5762
5650 5649 5647 5646 5646 5646 5646 5647 5649 5651 5653 5656 5659 5664 5668 5673 5677 5682 5686 5690 5694 5698 5702 5705 5709 5712 5716 5719 5722 5725 5728 5731 5734 5736 5739 5741 5743 5744 5746 5746 5747 5748 5750
5647 5645 5644 5643 5642 5642 5642 5643 5644 5645 5647 5650 5653 5656 5660 5664 5668 5672 5676 5679 5683 5687 5690 5693 5697 5700 5703 5706 5709 5712 5716 5718 5721 5724 5726 5728 5730 5731 5733 5734 5734 5735 5736
5645 5643 5641 5640 5639 5639 5639 5639 5640 5640 5642 5643 5646 5649 5652 5656 5660 5663 5665 5668 5672 5675 5679 5682 5685 5688 5691 5694 5696 5699 5702 5705 5708 5711 5713 5714 5716 5718 5719 5720 5721 5722 5722
5643 5641 5640 5638 5637 5636 5635 5635 5635 5636 5636 5638 5640 5642 5645 5648 5651 5654 5656 5659 5661 5664 5667 5670 5673 5676 5679 5681 5683 5685 5688 5691 5694 5697 5699 5701 5703 5704 5705 5706 5707 5708 5709
5642 5640 5638 5636 5635 5634 5633 5632 5631 5631 5632 5633 5634 5636 5638 5641 5643 5646 5648 5649 5651 5653 5656 5659 5661 5663 5666 5668 5670 5672 5675 5677 5680 5683 5685 5687 5689 5690 5691 5692 5693 5694 5695
5641 5639 5637 5635 5634 5632 5631 5630 5629 5628 5628 5628 5629 5630 5632 5633 5636 5637 5639 5640 5642 5643 5645 5647 5650 5652 5654 5655 5657 5659 5661 5663 5666 5668 5670 5672 5674 5675 5676 5678 5679 5681 5682
5640 5638 5637 5635 5633 5631 5630 5628 5627 5626 5625 5625 5624 5625 5626 5627 5628 5629 5630 5631 5632 5633 5634 5636 5638 5639 5641 5642 5643 5645 5646 5648 5651 5653 5655 5657 5659 5660 5662 5663 5665 5667 5668
5639 5638 5636 5634 5632 5630 5628 5626 5625 5623 5622 5622 5621 5621 5621 5621 5621 5622 5623 5624 5624 5624 5625 5625 5626 5627 5628 5629 5630 5631 5632 5634 5636 5638 5640 5642 5644 5646 5647 5649 5650 5652 5653
5639 5637 5635 5633 5631 5628 5626 5624 5622 5621 5620 5619 5618 5617 5616 5616 5615 5616 5616 5616 5616 5616 5615 5615 5615 5615 5615 5616 5616 5616 5617 5619 5621 5623 5625 5627 5629 5631 5632 5634 5635 5636 5637
5638 5636 5634 5632 5629 5627 5625 5622 5620 5619 5617 5616 5614 5613 5611 5610 5610 5609 5609 5608 5608 5606 5605 5604 5603 5603 5603 5603 5603 5603 5603 5604 5606 5608 5610 5612 5614 5617 5617 5619 5620 5621 5622
5637 5635 5633 5630 5628 5625 5623 5620 5618 5616 5614 5613 5611 5609 5606 5605 5603 5602 5601 5600 5599 5597 5595 5594 5592 5591 5590 5590 5590 5589 5589 5590 5592 5593 5595 5598 5600 5601 5603 5604 5605 5605 5606
5635 5633 5631 5628 5626 5623 5620 5618 5615 5613 5611 5609 5607 5604 5601 5599 5597 5596 5594 5592 5590 5588 5586 5583 5581 5580 5579 5578 5577 5576 5575 5576 5577 5579 5581 5583 5585 5586 5588 5588 5589 5590 5591
5632 5630 5628 5625 5623 5620 5617 5615 5612 5609 5607 5605 5602 5600 5597 5594 5592 5590 5587 5585 5582 5579 5576 5573 5571 5569 5567 5566 5564 5563 5562 5563 5564 5566 5567 5569 5571 5572 5573 5574 5574 5575 5576
5629 5627 5624 5621 5619 5616 5613 5610 5607 5605 5603 5601 5598 5595 5592 5589 5586 5584 5581 5578 5574 5571 5567 5564 5561 5558 5556 5554 5552 5551 5550 5551 5552 5553 5554 5555 5556 5557 5558 5559 5560 5561 5562
5625 5623 5620 5617 5615 5612 5609 5606 5604 5601 5598 5596 5593 5590 5587 5584 5581 5577 5574 5571 5567 5563 5560 5556 5553 5550 5547 5544 5542 5539 5538 5539 5539 5540 5541 5542 5543 5543 5544 5545 5546 5547 5548
5621 5618 5615 5613 5610 5607 5605 5602 5599 5597 5594 5591 5588 5585 5582 5578 5575 5571 5567 5563 5559 5555 5552 5548 5545 5541 5538 5535 5532 5530 5528 5528 5528 5528 5529 5529 5530 5530 5531 5531 5532 5533 5534
5615 5613 5610 5608 5605 5602 5600 5597 5594 5591 5588 5586 5583 5579 5576 5572 5568 5564 5560 5556 5551 5547 5544 5540 5536 5532 5528 5525 5522 5520 5518 5516 5516 5516 5516 5516 5516 5516 5516 5517 5518 5518 5519
5609 5606 5604 5602 5599 5596 5593 5590 5588 5585 5582 5579 5575 5572 5568 5564 5560 5556 5552 5547 5543 5539 5535 5531 5527 5523 5519 5515 5513 5510 5508 5505 5504 5503 5503 5502 5502 5502 5503 5503 5504 5505 5506
5601 5599 5596 5594 5592 5589 5586 5583 5580 5577 5574 5571 5567 5564 5560 5556 5551 5547 5542 5538 5533 5529 5525 5521 5517 5513 5509 5506 5502 5499 5497 5495 5493 5491 5490 5490 5490 5490 5490 5491 5491 5492 5492
5592 5590 5588 5586 5583 5581 5578 5575 5572 5569 5565 5562 5559 5555 5551 5546 5542 5537 5532 5527 5523 5518 5514 5510 5506 5502 5499 5496 5492 5489 5486 5483 5481 5479 5478 5478 5478 5478 5478 5479 5479 5479 5480